Regional Weather Roundup
Issued by NWS

Home | Current Version | Previous Version | Graphics & Text | Print | Product List | Glossary On
Versions: 1 2 3 4 5 6 7 8 9 10 11 12 13 14 15 16 17 18 19 20 21 22 23 24 25 26 27 28 29 30 31 32 33 34 35 36 37 38 39 40 41 42 43 44 45 46 47 48 49 50
000
ASUS43 KOAX 271710
RWRNE

WEATHER ROUNDUP FOR NEBRASKA
NATIONAL WEATHER SERVICE OMAHA NE
1200 PM CDT SAT AUG 27 2016

NOTES: SATELLITE DATA IS BEING USED TO AUGMENT CLOUD COVER ABOVE
       12000 FEET.
       "FAIR" INDICATES FEW OR NO CLOUDS BELOW 12,000 FEET WITH NO
       SIGNIFICANT WEATHER AND/OR OBSTRUCTIONS TO VISIBILITY.

  * THESE STATIONS DO NOT REPORT WEATHER SUCH AS RAIN...SNOW OR FOG.

NEZ001>004-019>022-054>056-271800-
NEBRASKA PANHANDLE

CITY           SKY/WX    TMP DP  RH WIND       PRES   REMARKS
SCOTTSBLUFF    SUNNY     69  56  62 SE6       30.05F
ALLIANCE       SUNNY     68  55  63 S6        30.05F
CHADRON        SUNNY     73  53  49 SW8       30.00F
KIMBALL        SUNNY     73  49  42 CALM      30.11S
SIDNEY         SUNNY     69  58  67 SW6       30.10S
$$

NEZ057>060-069>072-079>082-271800-
SOUTHWEST NEBRASKA

CITY           SKY/WX    TMP DP  RH WIND       PRES   REMARKS
NORTH PLATTE   SUNNY     73  59  61 S5        30.05F
IMPERIAL       SUNNY     69  61  75 S13       30.07F
LEXINGTON      SUNNY     73  58  60 S3        30.05F
MCCOOK         SUNNY     74  60  61 S8        30.05S
OGALLALA       CLOUDY    71  61  71 SW8       30.06F
$$

NEZ005>010-023>029-035>040-094-271800-
NORTH CENTRAL NEBRASKA

CITY           SKY/WX    TMP DP  RH WIND       PRES   REMARKS
VALENTINE      SUNNY     74  54  49 S7        30.00F
AINSWORTH      SUNNY     73  59  61 SW5       30.02F
BROKEN BOW     SUNNY     73  58  59 S9        30.04F
O`NEILL        SUNNY     74  60  63 S10       30.02F
ORD            SUNNY     73  60  63 VRB3      30.02S
THEDFORD       SUNNY     76  60  58 S12G21    30.04S
$$

NEZ041-046>049-061>064-073>077-083>087-271800-
SOUTH CENTRAL NEBRASKA

CITY           SKY/WX    TMP DP  RH WIND       PRES   REMARKS
GRAND ISLAND   SUNNY     75  61  61 VRB5      30.05S
AURORA         SUNNY     74  63  69 W3        30.04F
HASTINGS       SUNNY     75  58  55 VRB3      30.06F
HEBRON         MOSUNNY   75  65  70 CALM      30.05S
HOLDREGE       SUNNY     73  59  61 SE5       30.05F
KEARNEY *      SUNNY     73  57  56 S3        30.04S
YORK           SUNNY     73  63  68 SW6       30.04F
$$

NEZ011>018-030>034-042>045-271800-
NORTHEAST NEBRASKA

CITY           SKY/WX    TMP DP  RH WIND       PRES   REMARKS
NORFOLK        CLOUDY    71  61  70 SW3       30.02F
ALBION         MOSUNNY   71  62  72 SE6       30.03S
BLAIR          MOSUNNY   73  66  78 S5        30.03S
FREMONT        MOSUNNY   74  63  66 S3        30.03F
TEKAMAH        PTSUNNY   74  65  73 W5        30.01F
WAYNE          CLOUDY    71  64  78 CALM      30.02F
$$

NEZ050>053-065>068-078-088>093-271800-
SOUTHEAST NEBRASKA

CITY           SKY/WX    TMP DP  RH WIND       PRES   REMARKS
LINCOLN        MOSUNNY   78  65  63 W3        30.03F
OMAHA EPPLEY   PTSUNNY   76  66  71 S5        30.01F
BEATRICE       SUNNY     75  65  70 CALM      30.04F
FALLS CITY     SUNNY     78  67  68 CALM      30.02F
NEBRASKA CITY  CLOUDY    74  68  82 S5        30.03F
PLATTSMOUTH    PTSUNNY   75  67  75 SW5       30.03S
$$

NEZ044-045-051>053-067-271800-
OMAHA AREA

CITY           SKY/WX    TMP DP  RH WIND       PRES   REMARKS
OMAHA EPPLEY   PTSUNNY   76  66  71 S5        30.01F
BLAIR          MOSUNNY   73  66  78 S5        30.03S
FREMONT        MOSUNNY   74  63  66 S3        30.03F
MILLARD        PTSUNNY   76  65  70 CALM      30.02S
OFFUTT AFB     PTSUNNY   76  67  72 W5        30.01S
PLATTSMOUTH    PTSUNNY   75  67  75 SW5       30.03S
WAHOO          FAIR      74  64  70 CALM      30.02F
$$



USA.gov is the U.S. government's official web portal to all federal, state and local government web resources and services.